Torna al catalogo

STARLINK-2636

AttivoComunicazioniVLEO
NORAD 48357·PAYLOAD·🇺🇸 United States

Lanciato May 4, 2021 da Cape Canaveral Space Force Station

Loading…

Prossimi Passaggi (prossime 24 ore)

TLE

AggiornatoSource: CelesTrak SupGP

Epoca: Sep 14, 2026, 20:12 UTC

1 48357C 21038E   26257.84215278  .00018993  00000+0  61085-3 0  2579
2 48357  53.1603 197.8928 0001488  98.1756 350.7784 15.31687164    15

Traccia STARLINK-2636 in tempo reale con AllMySat

Download on the App Store